Location: Hopville
(44.8032°N, 123.1329°W)
Time: 04:12:45
(UTC+00:00)

Lacrosse 5 rocket - Pass Details

Date: 24 January 2021
Orbit: 464 x 630 km, 57.0° (Epoch: 26 February)

Event Time Altitude Azimuth Distance (km) Brightness Sun altitude
Exits shadow 14:29:23 18° 262° (W) 1,282 2.6 -12.5°
Maximum altitude 14:30:38 21° 235° (SW) 1,152 2.6 -12.3°
Drops below altitude 10° 14:33:29 10° 185° (S) 1,655 3.9 -11.8°
Sets 14:35:56 0° 168° (SSE) 2,508 5.1 -11.4°
